Simultaneous Nadir Overpasses (SNOs) Predictions

Prediction of SNOs between METOP-B and NOAA-19 Satellite Orbit:

Table of predicted SNOs for the next 14.0 days since TLE Epoch: 5/15/2015
Index Date (METOP-B) Time (METOP-B) Lat,Lon (METOP-B) SZA (METOP-B ) Date (NOAA-19) Time (NOAA-19) Lat,Lon (NOAA-19) SZA (NOAA-19 ) Distance(km) Time Diff (sec)
1 05/21/2015 17:09:20 -75.17, 100.77 125.13 05/21/2015 17:08:10 -75.18, 98.97 125.10 51.19 70
2 05/21/2015 18:00:07 74.83, -92.88 54.53 05/21/2015 17:59:06 74.84, -92.77 54.54 3.44 61
3 05/21/2015 18:50:49 -74.82, 74.41 125.49 05/21/2015 18:50:05 -74.82, 74.54 125.49 3.64 44
4 05/21/2015 19:41:29 74.81,-118.28 54.49 05/21/2015 19:41:08 74.81,-118.18 54.50 2.88 21
5 05/21/2015 20:32:11 -74.79, 49.01 125.53 05/21/2015 20:32:07 -74.79, 49.12 125.53 3.16 4
6 05/21/2015 21:22:51 74.78,-143.68 54.46 05/21/2015 21:23:10 74.77,-143.60 54.45 2.72 19
7 05/21/2015 22:13:33 -74.77, 23.61 125.57 05/21/2015 22:14:09 -74.76, 23.70 125.58 3.01 36
8 05/21/2015 23:04:13 74.76,-169.09 54.42 05/21/2015 23:05:12 74.74,-169.01 54.40 3.01 59
9 05/21/2015 23:54:57 -74.65, -2.06 125.70 05/21/2015 23:56:10 -74.68, -1.58 125.68 14.27 73




NCC Satellite Simultaneous Nadir Overpasses (SNOs) Prediction Service
